WQ5C-13 Weather Reports


Display with metric or nautical units.
time (UTC)temp
F
wind
direction
speed
MPH
gust
MPH
rain 1hr
in
rain 24hr
in
rain mn
in
humidity
%
barometer
mb
20260510071015 65 0.0 0.0 0.00 0.00 0.00 94 1011.5
20260510070015 66 192 1.0 2.0 0.00 0.00 0.00 94 1011.4
20260510065015 66 0.0 0.0 0.00 0.00 0.00 94 1011.4
20260510064015 66 0.0 0.0 0.00 0.00 0.00 93 1011.4
20260510063015 66 0.0 0.0 0.00 0.00 0.00 93 1011.3
20260510062015 66 0.0 0.0 0.00 0.00 0.00 93 1011.2
20260510061015 67 0.0 0.0 0.00 0.00 0.00 92 1011.3
20260510060015 67 0.0 0.0 0.00 0.00 0.00 92 1011.3
20260510055015 67 0.0 0.0 0.00 0.00 0.00 93 1011.3
20260510054015 67 0.0 0.0 0.00 0.00 0.00 92 1011.3
20260510053015 67 0.0 0.0 0.00 0.00 0.00 92 1011.4
20260510052015 67 0.0 0.0 0.00 0.00 0.00 91 1011.3
20260510051015 67 0.0 0.0 0.00 0.00 0.00 91 1011.3
20260510050015 67 0.0 0.0 0.00 0.00 0.00 90 1011.2
20260510045015 68 0.0 0.0 0.00 0.00 0.00 90 1011.1
20260510044035 68 0.0 0.0 0.00 0.00 0.00 89 1011.1
20260510043015 68 0.0 0.0 0.00 0.00 0.00 90 1011.0
20260510042015 68 0.0 0.0 0.00 0.00 0.00 89 1010.9
20260510041016 69 0.0 0.0 0.00 0.00 0.00 89 1010.7
20260510040035 69 0.0 0.0 0.00 0.00 0.00 88 1010.7
20260510035035 69 0.0 0.0 0.00 0.00 0.00 88 1010.6
20260510034015 69 0.0 0.0 0.00 0.00 0.00 87 1010.6
20260510033016 70 0.0 0.0 0.00 0.00 0.00 86 1010.5
20260510032015 70 0.0 0.0 0.00 0.00 0.00 86 1010.5
20260510031015 70 0.0 0.0 0.00 0.00 0.00 85 1010.4
20260510030015 71 0.0 0.0 0.00 0.00 0.00 84 1010.3
20260510025015 71 71 0.0 2.0 0.00 0.00 0.00 83 1010.1
20260510024015 72 0.0 0.0 0.00 0.00 0.00 82 1009.9
20260510023015 72 0.0 0.0 0.00 0.00 0.00 81 1009.8
20260510022015 72 0.0 0.0 0.00 0.00 0.00 80 1009.8
20260510021015 73 0.0 0.0 0.00 0.00 0.00 79 1009.7
20260510020015 73 0.0 0.0 0.00 0.00 0.00 78 1009.6
20260510015015 73 0.0 0.0 0.00 0.00 0.00 77 1009.6
20260510014015 74 0.0 0.0 0.00 0.00 0.00 76 1009.5
20260510013035 74 0.0 0.0 0.00 0.00 0.00 74 1009.4
20260510012015 75 0.0 0.0 0.00 0.00 0.00 73 1009.2
20260510011015 75 0.0 0.0 0.00 0.00 0.00 71 1009.2
20260510010015 76 0.0 0.0 0.00 0.00 0.00 68 1009.1
20260510005015 77 0.0 0.0 0.00 0.00 0.00 66 1008.9
20260510004015 77 0.0 0.0 0.00 0.00 0.00 63 1008.8
20260510003015 77 0.0 0.0 0.00 0.00 0.00 61 1008.7
20260510002015 77 0.0 0.0 0.00 0.00 0.00 59 1008.7
20260510001015 77 0.0 0.0 0.00 0.00 0.00 57 1008.6
20260510000015 77 0.0 0.0 0.00 0.00 0.00 56 1008.5
20260509235016 77 0.0 0.0 0.00 0.00 0.00 52 1008.4
20260509234015 77 0.0 0.0 0.00 0.00 0.00 54 1008.4
20260509233035 77 0.0 0.0 0.00 0.00 0.00 54 1008.5
20260509232015 77 0.0 0.0 0.00 0.00 0.00 54 1008.4
20260509231015 78 0.0 0.0 0.00 0.00 0.00 53 1008.4
20260509230035 77 59 1.0 10.0 0.00 0.00 0.00 52 1008.1
20260509225016 76 360 0.0 9.0 0.00 0.00 0.00 55 1008.0
20260509224035 77 74 3.0 9.0 0.00 0.00 0.00 56 1008.4
20260509223015 78 344 1.0 19.0 0.00 0.00 0.00 56 1008.4
20260509222015 79 19 0.0 1.0 0.00 0.00 0.00 49 1008.4
20260509221015 81 1 4.0 16.0 0.00 0.00 0.00 57 1008.7
20260509220015 83 6 1.0 6.0 0.00 0.00 0.00 58 1008.5
20260509215035 83 0.0 0.0 0.00 0.00 0.00 57 1008.3
20260509214015 84 56 0.0 6.0 0.00 0.00 0.00 55 1008.4
20260509213035 84 0.0 0.0 0.00 0.00 0.00 57 1008.5
20260509212036 83 0.0 0.0 0.00 0.00 0.00 56 1008.5
20260509211016 84 360 0.0 6.0 0.00 0.00 0.00 53 1008.6
20260509210035 84 360 0.0 6.0 0.00 0.00 0.00 53 1008.7
20260509205015 85 0.0 0.0 0.00 0.00 0.00 52 1008.8
20260509204015 85 360 0.0 0.0 0.00 0.00 0.00 51 1009.0
20260509203015 86 0.0 0.0 0.00 0.00 0.00 49 1009.2
20260509202015 85 78 4.0 9.0 0.00 0.00 0.00 50 1009.3
20260509201016 85 81 3.0 9.0 0.00 0.00 0.00 50 1009.3
20260509200015 85 360 0.0 10.0 0.00 0.00 0.00 51 1009.5
20260509195015 85 360 0.0 8.0 0.00 0.00 0.00 52 1009.6
20260509194016 85 75 0.0 2.0 0.00 0.00 0.00 53 1009.8
20260509193015 85 56 1.0 9.0 0.00 0.00 0.00 56 1010.0
20260509192016 84 339 0.0 0.0 0.00 0.00 0.00 54 1010.2
20260509191015 84 360 1.0 9.0 0.00 0.00 0.00 56 1010.3
20260509190015 85 360 0.0 6.0 0.00 0.00 0.00 53 1010.6
20260509185015 84 360 1.0 10.0 0.00 0.00 0.00 56 1010.6
20260509184015 84 82 1.0 7.0 0.00 0.00 0.00 56 1010.6
20260509183015 84 81 1.0 7.0 0.00 0.00 0.00 57 1010.8
20260509182015 84 84 0.0 5.0 0.00 0.00 0.00 57 1010.9
20260509181015 83 67 1.0 9.0 0.00 0.00 0.00 61 1011.0
20260509180015 82 40 1.0 6.0 0.00 0.00 0.00 65 1011.1
20260509175015 82 360 0.0 5.0 0.00 0.00 0.00 65 1011.2
20260509174016 81 46 1.0 7.0 0.00 0.00 0.00 67 1011.3
20260509173015 80 61 2.0 7.0 0.00 0.00 0.00 70 1011.5
20260509172015 80 10 1.0 4.0 0.00 0.00 0.00 71 1011.5
20260509171015 79 69 1.0 4.0 0.00 0.00 0.00 72 1011.5
20260509170016 79 0.0 0.0 0.00 0.00 0.00 74 1011.6
20260509165015 78 32 0.0 5.0 0.00 0.00 0.00 76 1011.6
20260509164036 77 356 1.0 5.0 0.00 0.00 0.00 78 1011.6
20260509163015 77 360 0.0 1.0 0.00 0.00 0.00 82 1011.7
20260509162015 76 4 1.0 6.0 0.00 0.00 0.00 88 1011.6
20260509161015 75 15 2.0 8.0 0.00 0.00 0.00 92 1011.6
20260509160015 74 15 2.0 8.0 0.00 0.00 0.00 95 1011.5
20260509155015 73 16 2.0 6.0 0.00 0.00 0.00 96 1011.5
20260509154015 72 14 3.0 8.0 0.00 0.00 0.00 98 1011.3
20260509153015 71 17 2.0 6.0 0.00 0.00 0.00 98 1011.5
20260509152015 71 19 0.0 3.0 0.00 0.00 0.00 98 1012.0
20260509151015 71 0.0 0.0 0.00 0.00 0.00 98 1011.9
20260509150015 71 0.0 0.0 0.00 0.00 0.00 98 1012.0
20260509145016 71 0.0 0.0 0.00 0.00 0.00 98 1012.1
20260509144015 71 0.0 0.0 0.00 0.00 0.00 98 1012.1
20260509143015 71 0.0 0.0 0.00 0.00 0.00 98 1012.1
20260509142015 70 0.0 0.0 0.00 0.00 0.00 99 1012.0
20260509141015 70 0.0 0.0 0.00 0.00 0.00 98 1011.7
20260509140116 70 0.0 0.0 0.00 0.00 0.00 99 1011.1
20260509135015 70 18 0.0 3.0 0.00 0.00 0.00 99 1011.1
20260509134035 70 18 1.0 4.0 0.00 0.00 0.00 98 1011.2
20260509133015 70 0.0 0.0 0.00 0.00 0.00 98 1011.2
20260509132015 70 0.0 0.0 0.00 0.00 0.00 99 1011.2
20260509131015 70 0.0 0.0 0.00 0.00 0.00 98 1011.0
20260509130015 70 0.0 0.0 0.00 0.00 0.00 98 1011.1
20260509125015 70 0.0 0.0 0.00 0.00 0.00 98 1011.3
20260509124015 70 18 1.0 4.0 0.00 0.00 0.00 98 1011.1
20260509123015 70 17 1.0 5.0 0.00 0.00 0.00 98 1011.2
20260509122036 70 22 1.0 2.0 0.00 0.00 0.00 98 1011.5
20260509121015 70 0.0 0.0 0.00 0.00 0.00 98 1011.4
20260509120015 70 32 0.0 1.0 0.00 0.00 0.00 98 1011.6
20260509115015 70 0.0 0.0 0.00 0.00 0.00 98 1011.7
20260509114015 70 0.0 0.0 0.00 0.00 0.00 98 1011.6
20260509113016 70 17 2.0 5.0 0.00 0.00 0.00 98 1011.4
20260509112015 70 17 1.0 5.0 0.00 0.00 0.00 98 1011.1
20260509111015 70 0.0 0.0 0.00 0.00 0.00 98 1010.7
20260509110035 70 20 1.0 4.0 0.00 0.00 0.00 98 1010.5
20260509105035 70 0.0 0.0 0.00 0.00 0.00 98 1010.6
20260509104015 70 0.0 0.0 0.00 0.00 0.00 98 1010.7
20260509103015 70 0.0 0.0 0.00 0.00 0.00 98 1011.0
20260509102015 70 23 0.0 3.0 0.00 0.00 0.00 97 1010.9
20260509101015 70 0.0 0.0 0.00 0.00 0.00 97 1010.8
20260509100015 70 18 0.0 4.0 0.00 0.00 0.00 97 1010.6
20260509095015 70 0.0 0.0 0.00 0.00 0.00 97 1010.7
20260509094035 70 0.0 0.0 0.00 0.00 0.00 97 1010.6
20260509093036 70 0.0 0.0 0.00 0.00 0.00 96 1010.2
20260509092035 70 0.0 0.0 0.00 0.00 0.00 96 1010.3
20260509091016 70 0.0 0.0 0.00 0.00 0.00 96 1010.3
20260509090015 70 0.0 0.0 0.00 0.00 0.00 96 1010.0
20260509085015 70 31 0.0 1.0 0.00 0.00 0.00 95 1009.8
20260509084015 70 0.0 0.0 0.00 0.00 0.00 95 1010.0
20260509083015 70 0.0 0.0 0.00 0.00 0.00 95 1010.0
20260509082015 70 14 3.0 8.0 0.00 0.00 0.00 95 1010.1
20260509081015 70 18 1.0 4.0 0.00 0.00 0.00 95 1010.2
20260509080016 71 15 2.0 5.0 0.00 0.00 0.00 95 1010.3
20260509075015 71 13 2.0 6.0 0.00 0.00 0.00 95 1010.2
20260509074015 71 16 2.0 6.0 0.00 0.00 0.00 95 1010.1
20260509073015 71 15 2.0 6.0 0.00 0.00 0.00 94 1009.9
20260509072015 71 14 1.0 4.0 0.00 0.00 0.00 94 1010.2